#timestamp,LO_Frequency,Hit,StdDev 
1665320415.5,285968373.5,N
1665320435.3,285968375.1,N
1665320455.2,285968377.7,N
1665320475.0,285968374.9,N
1665320475.9,285968374.9,N
1665320495.7,285968378.5,N
1665320515.6,285968380.3,N
1665320535.4,285968378.5,Y
1665320555.3,286047007.0,P
1665320575.1,286047010.7,N
1665320595.8,286047005.5,N
1665320615.7,286046999.8,N
1665320635.5,286046998.5,N
1665320655.4,286047000.2,N
1665320675.2,286047003.7,N
1665320695.0,286047000.2,N
1665320695.9,286047000.2,N
1665320715.8,286046998.1,N
1665320735.6,286046996.7,N
1665320755.4,286046990.9,N
1665320775.3,286046979.0,N
1665320795.1,286046980.9,N
1665320815.8,286046987.1,N
1665320835.7,286046993.1,N
1665320855.5,286046993.9,N
1665320875.4,286046994.8,N
1665320895.2,286046994.4,N
1665320915.0,286046993.5,N
1665320915.9,286046993.5,N
1665320935.8,286046994.6,N
1665320955.6,286046985.2,N
1665320975.4,286046983.7,N
1665320995.3,286046986.0,N
1665321015.1,286046990.2,N
1665321035.9,286046982.1,N
1665321055.7,286046974.7,N
1665321075.5,286046973.3,N
1665321095.4,286046981.2,N
1665321115.2,286046982.1,N
1665321135.1,286046974.2,N
1665321136.0,286046974.2,N
1665321155.8,286046971.2,Y
1665321175.6,286046977.9,P
1665321195.5,286046978.2,P
1665321215.3,286046984.3,N
1665321235.2,286046984.3,Y
1665321255.9,286047000.2,P
1665321275.7,286047004.4,N
1665321295.6,286047004.6,N
1665321315.4,286047006.9,N
1665321335.2,286047004.5,N
1665321355.1,286047000.3,N
1665321356.0,286047000.3,N
1665321375.8,286046993.6,N
1665321395.6,286046994.1,N
1665321415.5,286046993.9,N
1665321435.3,286046994.4,N
1665321455.2,286046995.4,N
1665321475.9,286046997.3,N
1665321495.7,286046995.4,N
1665321515.6,286046995.3,N
1665321535.4,286046996.0,N
1665321555.2,286046989.1,N
1665321575.1,286046980.9,Y
1665321576.0,286046980.9,P
1665321595.8,286046981.1,N
1665321615.7,286046989.2,N
1665321635.5,286046994.4,N
1665321655.3,286046997.3,N
1665321675.2,286046998.2,N
1665321695.0,286046999.4,N
1665321695.9,286046999.4,N
1665321715.7,286046995.3,N
1665321735.6,286046991.9,N
1665321755.4,286046996.2,N
1665321775.3,286047001.7,N
1665321795.1,286047006.4,N
1665321796.0,286047006.4,N
1665321815.8,286047012.2,N
1665321835.7,286047014.3,N
1665321855.5,286047010.0,N
1665321875.3,286047001.7,N
1665321895.2,286046994.6,N
1665321915.0,286046987.6,N
1665321915.9,286046987.6,N
1665321935.8,286046986.0,N
1665321955.6,286046980.9,N
1665321975.4,286046975.9,N
1665321995.3,286046980.2,N
1665322015.1,286046984.5,N
1665322035.8,286046988.1,N
1665322055.7,286046990.3,N
1665322075.5,286046991.0,N
1665322095.4,286046993.0,N
1665322115.2,286046991.5,N
1665322135.0,286046989.5,N
1665322135.9,286046989.5,N
1665322155.8,286046979.9,N
1665322175.6,286046971.9,N
1665322195.4,286046969.3,N
1665322215.3,286046968.3,N
1665322235.1,286046960.0,Y
1665322255.9,286046970.4,P
1665322275.7,286046972.8,N
1665322295.5,286046977.9,N
1665322315.4,286046976.6,N
1665322335.2,286046972.7,Y
1665322355.0,286046998.9,P
1665322355.9,286046998.9,N
1665322375.8,286046999.8,N
1665322395.6,286047004.0,N
1665322415.5,286047008.7,N
1665322435.3,286047011.5,N
1665322455.1,286047010.2,N
1665322475.9,286047008.8,N
1665322495.7,286046998.7,N
1665322515.5,286046996.6,N
1665322535.4,286047002.3,N
1665322555.2,286046998.9,N
1665322575.1,286047000.3,N
1665322576.0,286047000.3,N
1665322595.8,286047004.1,N
1665322615.6,286047005.7,N
1665322635.5,286046998.6,N
1665322655.3,286046996.3,N
1665322675.2,286046992.9,N
1665322695.9,286046991.7,N
1665322715.7,286046993.8,N
1665322735.6,286047001.0,N
1665322755.4,286047008.3,N
1665322775.3,286047011.3,N
1665322795.1,286047010.1,N
1665322796.0,286047010.1,N
1665322815.8,286047013.2,N
1665322835.7,286047014.9,N
1665322855.5,286047021.5,N
1665322875.3,286047022.9,N
1665322895.2,286047024.2,Y
1665322915.0,286047023.2,P
1665322915.9,286047023.2,N
1665322935.8,286047022.0,N
1665322955.6,286047014.5,N
1665322975.4,286047009.8,N
1665322995.3,286047012.9,N
1665323015.1,286047018.4,N
1665323035.9,286047020.9,Y
1665323055.7,286047005.3,P
1665323075.5,286047000.7,N
1665323095.4,286046996.8,N
1665323115.2,286046999.6,N
1665323135.1,286046998.0,N
1665323136.0,286046998.0,N
1665323155.8,286047000.2,N
1665323175.6,286047001.6,N
1665323195.5,286047000.1,N
1665323215.3,286046999.9,N
1665323235.2,286047004.2,N
1665323255.9,286047004.5,N
1665323275.7,286047005.5,N
1665323295.6,286047002.0,N
1665323315.4,286047000.1,N
1665323335.2,286047000.1,N
1665323355.1,286046995.4,N
1665323356.0,286046995.4,N
1665323375.8,286046992.3,N
1665323395.7,286046994.6,N
1665323415.5,286046996.3,N
1665323435.3,286046997.1,N
1665323455.2,286046998.7,N
1665323475.0,286046996.6,N
1665323475.9,286046996.6,N
1665323495.7,286047003.6,N
1665323515.6,286047006.7,N
1665323535.4,286047006.2,N
1665323555.3,286047004.5,N
1665323575.1,286047005.1,N
1665323576.0,286047005.1,N
1665323595.8,286047003.3,N
1665323615.7,286046994.1,N
1665323635.5,286046985.2,Y
1665323655.4,286046983.4,P
1665323675.2,286046981.5,N
1665323695.0,286046977.5,N
1665323695.9,286046977.5,N
1665323715.8,286046973.7,Y
1665323735.6,286046982.5,P
1665323755.4,286046977.9,P
1665323775.3,286046976.1,P
1665323795.1,286046975.2,Y
1665323815.9,286046998.0,P
1665323835.7,286046997.3,N
1665323855.5,286046996.0,N
1665323875.4,286046991.4,N
1665323895.2,286046982.3,N
1665323915.0,286046984.6,N
1665323915.9,286046984.6,N
1665323935.8,286046986.3,N
1665323955.6,286046985.2,N
1665323975.5,286046983.1,N
1665323995.3,286046989.8,N
